Germantown, Iowa
Current Conditions -  °F | °C
As of 3:15 PM on Sunday 21 Dec 2014 (Local Time) from KORC Reporting Station
Haze Haze  
Wind Chill: 30°   Ceiling: 500
Heat Index: 39°   Visibility: 3mi
Dew Point: 37°   Wind: 20mph
Humidity: 93%   Direction: 190°S
Pressure: 29.65"   Gusts: 25mph
Location:  42.9549°N, 95.7402°W
Report Text: KORC 212115Z AUTO 19017G22KT 3SM BR OVC005 04/03 A2965 RMK AO2
Loading
Personal Weather Stations






























Interactive Weather Map New forecast layout! Learn more

10-Day Weather Forecast

Advertisements
Track Severe Weather on mobile